Overview Statistics Trail Chart Weather Telemetry Raw packets
 

This is the latest recevied weather packets stored in our database for station/object HB9FHL-13. If no packets are shown the sender has not sent any weather packets the latest 10 day(s).

<< 114 115 116 117 118 119 120 >>
Time Temp. Humidity Pressure Rain* Wind** Luminosity Snow
1787947329 17.22° C - 1017.4 hPa 1.27 mm - - -
1787947263 17.22° C - 1017.4 hPa 1.27 mm - - -
1787947259 17.22° C - 1017.4 hPa 1.27 mm - - -
1787946959 16.67° C - 1020.8 hPa 1.27 mm - - -
1787946955 16.67° C - 1020.8 hPa 1.27 mm - - -
1787946658 16.11° C - 1016.8 hPa 1.27 mm - - -
1787946655 16.11° C - 1016.8 hPa 1.27 mm - - -
1787946354 17.22° C - 1018.1 hPa 1.27 mm - - -
1787946092 16.67° C - 1022 hPa 1.27 mm - - -
1787946057 16.67° C - 1022 hPa 1.27 mm - - -
1787946054 16.67° C - 1022 hPa 1.27 mm - - -
1787945753 16.67° C - 1013.6 hPa 1.27 mm - - -
1787945453 16.11° C - 1013.7 hPa 1.27 mm - - -
1787945152 16.11° C - 1016.1 hPa 1.27 mm - - -
1787944855 16.67° C - 1018.4 hPa 1.27 mm - - -
1787944852 16.67° C - 1018.4 hPa 1.27 mm - - -
1787944551 16.67° C - 1015.3 hPa 1.02 mm - - -
1787944255 15.56° C - 1027.9 hPa 1.02 mm - - -
1787944251 15.56° C - 1027.9 hPa 1.02 mm - - -
1787943954 15.56° C - 1022.6 hPa 1.02 mm - - -
1787943950 15.56° C - 1022.6 hPa 1.02 mm - - -
1787943654 15.56° C - 1020.8 hPa 1.02 mm - - -
1787943650 15.56° C - 1020.8 hPa 1.02 mm - - -
1787943049 16.11° C - 1018.5 hPa 1.02 mm - - -
1787942748 15° C - 1016.1 hPa 1.02 mm - - -

* Rain since midnight (hover to see other rain measurements)
** Current wind speed in m/s (hover to see current wind gust speed)